Theta_e
340 337 335 332 330 327 324 322 320 318 317 316 316 316 316 317 318 318 319 320 320 320 320 319 319 319 319 319 319 318 318 317 318 316 316 315 315 313 313 313 312 309 309
336 334 332 329 326 323 321 319 318 317 316 316 316 317 318 318 318 318 319 319 320 319 319 319 319 319 319 318 318 318 318 318 317 319 317 315 314 314 314 312 311 309 310
333 330 328 325 323 321 319 318 317 317 316 316 317 318 318 318 318 318 319 319 318 318 318 318 318 317 316 315 315 316 316 316 317 316 316 314 314 315 314 312 311 310 310
329 327 325 322 320 319 318 317 317 316 316 317 318 318 318 318 318 318 319 319 319 318 318 318 317 314 311 310 309 312 313 315 316 316 315 314 315 314 312 312 311 310 311
325 323 322 320 319 318 317 317 316 316 316 318 318 318 317 314 312 317 319 319 319 319 318 317 316 311 308 306 306 308 312 314 314 314 314 312 313 312 310 310 310 310 312
322 321 319 318 317 318 317 316 315 316 317 318 318 317 315 309 309 314 317 319 318 317 317 315 312 310 308 304 305 310 311 311 313 312 311 312 312 313 311 311 311 311 313
320 318 318 318 317 317 316 315 316 317 318 317 317 317 315 309 308 311 313 317 317 316 315 313 308 306 305 303 306 313 314 314 312 311 311 312 312 312 311 311 312 312 313
318 318 317 317 317 316 316 316 316 317 317 316 316 316 313 308 307 308 311 315 317 316 313 311 307 303 301 302 306 312 313 314 312 312 312 313 313 313 312 313 314 313 313
317 316 316 316 316 316 316 316 316 316 316 316 315 315 315 307 306 307 313 316 316 314 311 307 303 301 300 301 306 309 311 312 310 312 314 313 313 313 313 313 314 314 313
316 315 315 315 315 316 316 316 316 315 316 315 314 313 312 308 303 304 310 312 312 312 310 306 302 296 299 299 303 306 307 307 307 311 314 314 314 313 312 313 314 313 312
315 315 315 315 315 316 316 315 314 315 315 314 314 313 311 310 302 300 299 303 304 308 306 303 301 296 299 299 300 303 304 306 308 312 312 312 312 312 312 313 313 312 312
314 314 315 315 315 315 315 314 314 314 314 314 314 315 313 307 304 301 299 297 298 304 302 299 298 298 299 300 300 300 303 306 308 309 310 310 310 310 311 312 313 311 311
314 315 314 313 313 313 313 313 313 314 315 316 316 314 313 312 308 302 301 299 299 300 300 299 298 299 301 302 301 301 302 302 303 304 304 305 307 309 310 310 311 311 312
314 314 313 313 313 313 314 314 314 313 314 314 314 313 313 309 301 297 299 299 299 299 300 302 300 300 301 302 301 301 301 302 302 303 303 303 303 304 306 309 309 309 310
313 313 312 311 312 311 306 307 309 304 306 310 308 311 306 306 292 290 290 293 294 297 298 301 300 301 301 301 301 301 300 301 302 302 302 302 303 303 303 304 307 307 308
313 312 312 312 311 309 307 303 302 302 304 305 304 303 298 295 291 289 291 292 295 297 300 299 299 300 300 300 300 300 300 300 301 301 301 302 302 302 302 303 303 305 307
313 312 311 311 311 310 309 307 303 299 300 300 300 299 296 293 291 291 293 295 295 298 298 298 298 298 299 299 299 300 299 299 300 300 301 301 301 301 301 301 301 300 302
312 310 311 311 311 311 311 310 308 306 305 299 295 295 293 292 291 293 295 297 298 297 296 296 296 296 297 297 298 298 299 298 298 299 299 300 300 300 300 300 300 300 300
310 311 311 311 311 311 311 310 308 306 306 301 296 294 294 295 295 295 296 297 297 296 295 295 295 295 295 295 296 297 297 297 297 298 298 299 299 299 299 299 299 300 298
310 311 311 311 309 310 310 310 307 306 305 304 304 302 300 298 299 297 296 295 295 294 294 294 293 293 293 293 294 295 296 296 296 296 297 297 297 298 298 298 298 299 298
309 309 310 310 310 310 310 310 308 306 306 305 304 301 298 300 299 297 295 294 293 293 293 293 293 292 292 292 293 293 293 294 294 295 296 296 296 296 297 297 298 297 298
308 308 309 310 309 309 309 309 307 306 305 304 302 296 297 299 298 297 294 293 293 292 292 292 292 291 291 291 291 290 290 290 291 292 294 294 295 294 296 296 296 296 297
308 308 309 309 308 307 308 308 307 305 305 304 301 299 299 298 297 296 294 293 292 292 292 291 291 290 290 289 289 288 286 286 288 290 292 293 294 292 294 294 295 295 295
308 308 308 308 307 307 307 307 306 305 304 303 302 301 299 299 298 295 293 292 292 291 291 291 290 289 288 287 286 286 283 284 287 287 290 292 292 292 292 293 293 293 293
308 308 308 307 306 306 306 305 305 304 303 302 301 301 300 298 296 295 293 292 291 291 290 290 290 289 288 286 284 283 283 284 286 287 289 291 291 291 290 291 291 292 292
307 307 306 305 305 305 304 304 303 303 302 301 301 300 299 298 296 294 292 291 291 290 290 289 289 288 287 285 282 282 283 284 286 288 289 290 289 290 289 290 290 291 291
Wind_Speed
24 23 22 20 18 16 16 15 13 12 11 10 10 9 9 8 8 7 8 8 9 9 8 9 9 10 12 13 14 14 17 18 15 22 23 25 24 25 29 30 30 33 29
26 24 22 19 18 17 15 13 12 11 11 10 9 8 7 7 7 7 8 8 8 9 8 9 11 13 14 14 16 17 17 16 17 18 21 24 24 24 26 29 30 30 31
26 24 21 19 17 16 15 12 11 11 11 10 9 8 8 9 8 8 8 8 8 8 8 10 11 14 15 17 18 18 19 19 19 20 21 21 24 25 27 28 29 29 26
25 22 21 19 17 15 14 13 12 10 10 9 9 9 10 9 8 8 8 7 7 8 8 9 9 13 15 17 18 18 18 20 20 20 20 20 22 27 24 26 27 28 27
24 22 20 18 17 15 14 14 11 10 9 9 9 10 8 7 4 8 6 7 7 8 9 10 11 11 19 18 18 18 16 18 19 20 20 19 21 25 23 26 25 26 28
24 22 20 18 16 16 13 13 12 10 9 9 9 9 9 8 7 7 7 7 8 9 10 12 13 12 16 20 19 12 17 16 15 16 16 18 21 22 25 24 23 23 8
23 21 19 17 16 15 14 13 11 10 9 10 10 9 9 8 7 7 6 6 7 9 10 11 13 15 15 20 16 16 16 9 9 16 15 17 18 21 21 22 24 23 21
22 20 18 17 16 16 15 13 12 10 9 10 9 9 8 7 5 5 6 6 6 7 7 8 11 15 19 20 15 14 16 9 12 14 18 17 15 19 20 24 19 21 20
21 19 18 17 16 15 15 13 11 10 9 9 9 8 7 6 5 4 5 4 6 6 7 9 10 14 19 21 14 15 15 15 16 17 17 10 17 17 22 27 25 23 15
21 19 18 17 16 15 14 13 11 10 9 9 9 7 7 6 8 8 6 7 6 8 6 9 15 20 17 20 16 16 15 16 17 20 15 14 17 17 22 24 24 17 18
22 20 18 17 16 15 13 12 11 9 9 8 8 6 6 6 9 13 12 9 8 10 11 12 12 18 16 20 18 16 16 20 19 15 16 19 18 20 23 25 24 24 18
23 21 19 17 15 14 13 11 9 9 9 7 7 7 5 4 10 13 16 14 11 8 10 11 13 16 16 13 17 19 19 17 16 16 16 16 17 18 20 21 21 26 20
24 22 19 17 15 13 12 11 9 7 8 9 10 6 5 4 6 12 12 12 13 7 9 9 14 13 16 13 15 19 18 18 18 18 19 19 18 18 16 19 20 21 15
25 21 19 17 15 13 11 9 9 6 2 5 4 4 3 6 7 9 8 9 9 9 10 9 11 11 9 12 14 16 17 18 18 18 19 20 20 20 19 17 18 24 19
23 21 18 17 15 14 14 12 11 10 9 6 9 6 6 7 6 11 11 10 10 8 12 9 11 12 12 13 14 16 17 19 19 19 20 20 21 22 21 20 17 19 19
23 20 18 17 15 14 13 12 12 10 7 7 8 9 8 8 6 7 12 12 12 11 8 10 12 12 13 14 15 17 18 20 20 20 20 21 22 22 22 21 21 19 14
20 20 17 16 15 14 13 13 12 10 9 10 9 8 7 6 6 7 8 8 16 11 10 10 11 12 13 14 14 16 17 18 18 19 20 21 21 21 22 22 22 24 21
20 19 17 15 13 11 9 11 10 9 9 8 9 9 9 10 10 8 8 6 8 9 10 10 11 12 13 14 15 15 16 18 19 19 20 21 21 22 22 23 23 23 23
20 17 15 14 12 11 10 12 10 9 8 10 8 7 6 10 10 12 11 9 9 9 9 10 10 12 13 14 14 15 16 18 18 19 20 20 21 21 22 22 22 20 23
14 16 14 13 12 11 10 12 10 10 9 9 7 6 4 1 2 6 8 8 8 8 8 9 10 11 13 14 14 16 16 17 18 19 19 20 21 20 21 21 22 23 22
15 14 11 12 12 11 9 9 10 11 10 10 7 6 6 4 4 6 7 7 7 7 8 9 10 11 12 14 15 16 16 16 18 19 19 20 21 21 21 21 21 22 21
14 15 12 11 10 9 9 10 9 11 11 11 9 8 7 4 4 5 6 7 7 7 8 9 10 11 12 14 16 16 16 16 17 18 19 20 20 20 20 20 21 21 22
13 14 13 11 9 8 9 10 10 10 11 11 11 9 6 5 4 5 6 6 6 6 7 9 10 12 13 13 14 15 15 16 15 18 17 20 19 21 20 20 21 21 22
12 13 12 11 10 10 10 9 10 12 12 11 10 8 7 5 5 4 5 6 6 7 7 8 10 12 13 13 13 13 15 17 15 15 17 17 18 19 19 19 20 20 21
11 11 11 9 8 8 9 11 10 11 12 12 10 9 8 7 6 5 5 6 6 7 8 9 9 10 11 13 14 15 15 14 15 17 15 16 17 17 18 18 20 19 20
8 6 7 8 7 8 11 12 12 12 12 11 11 9 8 6 6 6 5 6 6 6 7 7 8 9 9 11 13 14 14 13 13 15 17 15 17 16 18 18 19 18 19
Wind_Direction
128 125 124 123 121 116 108 102 104 100 92 84 81 76 73 69 69 70 70 66 61 53 37 28 17 6 360 358 343 350 339 346 332 332 335 344 347 338 346 345 351 350 338
131 127 126 123 117 111 110 109 108 102 96 94 86 80 79 82 84 79 71 67 59 50 37 23 18 7 359 355 342 344 336 334 320 326 339 346 344 338 347 352 352 352 338
129 128 126 122 120 118 117 114 107 105 98 90 88 88 89 91 90 85 79 69 60 49 31 19 12 4 358 349 342 336 336 334 334 332 338 343 335 359 346 348 354 350 346
131 129 127 125 123 121 118 113 108 105 101 98 96 94 92 92 88 84 74 66 56 44 23 12 1 359 354 348 338 332 335 334 340 342 340 344 343 352 350 350 346 350 341
129 128 126 126 125 125 121 116 115 107 102 97 102 99 95 81 76 86 62 57 44 31 14 8 358 349 5 350 338 328 330 336 339 344 341 335 341 342 346 339 341 338 347
131 130 132 131 131 125 123 118 111 104 102 105 105 99 85 67 93 104 76 47 34 27 10 5 2 356 349 342 341 331 311 294 331 341 332 330 334 335 337 338 335 344 343
130 132 132 135 132 129 126 119 116 113 110 108 103 99 84 65 68 102 77 50 27 20 10 3 1 356 347 349 352 354 342 335 342 337 313 320 326 331 331 334 342 341 335
134 134 139 141 136 135 131 127 125 120 111 107 104 99 83 60 52 80 65 54 20 10 5 4 356 355 348 357 355 356 347 14 345 321 312 313 327 344 348 341 335 337 342
136 138 141 141 138 136 132 132 127 122 116 111 105 99 88 54 33 30 31 344 17 356 355 344 12 2 355 4 3 1 354 348 342 331 331 357 1 358 359 351 354 353 343
138 137 140 141 139 135 133 134 127 126 122 117 109 103 91 67 45 40 34 13 15 356 15 10 3 1 10 18 11 3 355 343 330 323 339 358 6 2 3 356 0 358 8
134 133 135 135 132 132 133 132 134 121 115 118 122 117 104 92 46 40 40 34 20 4 4 358 356 9 13 18 17 0 353 343 327 337 4 4 359 358 358 1 11 15 14
131 130 130 132 134 136 133 131 133 130 128 140 148 155 125 102 58 29 33 36 35 23 10 359 355 11 11 12 12 9 9 3 1 358 1 3 355 358 357 1 5 9 19
129 130 132 131 131 134 133 132 133 159 149 172 181 157 134 108 59 19 19 19 20 18 356 348 3 3 8 13 6 12 13 14 10 7 2 356 354 348 354 7 2 6 10
132 133 133 131 130 129 131 139 124 82 134 150 134 109 136 88 29 18 16 7 12 11 357 349 349 357 14 13 14 16 15 16 13 9 6 0 358 3 357 7 8 356 360
136 135 133 134 131 107 79 65 93 77 62 59 48 60 6 86 50 43 37 27 20 12 3 0 6 11 12 16 17 18 18 14 13 10 9 6 6 8 2 3 15 6 4
137 138 143 137 137 124 122 92 91 91 94 93 85 89 76 83 63 51 55 49 49 32 15 16 14 14 15 15 15 13 17 12 9 9 10 8 6 8 3 8 9 9 8
140 138 141 141 137 141 141 131 114 93 99 105 107 108 101 72 66 67 63 54 44 38 31 26 21 15 13 14 14 12 13 9 7 11 11 9 6 5 7 9 12 10 -0
139 144 147 141 140 144 143 136 135 137 137 116 109 99 84 68 61 63 27 10 40 38 34 30 23 18 14 11 10 10 10 9 9 10 11 10 6 4 6 7 10 15 360
143 146 141 142 144 138 142 129 132 141 142 136 135 114 94 74 67 57 49 49 41 37 31 35 27 20 17 12 11 9 9 8 8 9 10 9 6 5 4 5 5 9 10
138 142 145 146 144 155 154 144 138 151 153 155 158 146 153 208 90 53 51 47 48 39 29 33 31 24 21 15 13 11 9 10 9 8 7 6 6 2 3 3 5 1 11
145 152 150 148 163 160 161 158 150 156 159 156 146 129 147 113 100 70 63 58 49 46 40 33 32 27 23 19 16 13 10 8 8 6 4 3 4 1 1 3 3 4 10
150 154 158 160 159 160 166 150 157 157 161 156 145 147 134 108 105 90 81 72 60 52 46 42 39 32 27 22 17 12 9 6 5 2 359 1 2 2 359 3 1 3 2
155 160 165 159 164 150 165 160 154 164 171 159 161 164 159 130 115 96 91 84 77 65 55 50 44 37 32 26 21 14 10 1 1 357 355 358 1 2 358 4 358 3 1
157 164 165 159 163 180 176 167 165 167 162 166 168 158 159 153 124 104 100 97 87 76 65 58 49 42 35 31 22 16 10 13 12 356 354 360 359 4 0 4 358 2 1
165 171 170 161 162 187 163 168 179 172 170 165 160 170 167 153 136 121 116 106 96 85 72 62 53 43 34 29 24 19 19 25 28 15 3 359 3 8 3 4 1 2 4
169 173 161 161 167 177 177 178 178 177 168 162 170 167 165 160 143 132 127 115 103 92 81 68 56 48 37 24 21 23 23 29 29 25 15 8 10 9 7 4 5 3 6